sat.trackr.live / text

‹ back to catalog

2021-091B

NORAD 49316 · 2021-091B

PAYLOAD ACTIVE UNKNOWN

§ Identity

Operator
Country
PRC
Launch date
2021-10-14
Launch site
TAISC
Launch vehicle
Mass (kg)
RCS (m²)

External: N2YO · Heavens-Above · Gunter

§ Orbital elements

Epoch: 2026-05-25T04:39:04.872960Z

Period
94.84 min
Inclination
97.4481°
Eccentricity
0.0014759
Mean motion
15.18415798 rev/d
Perigee alt
500.5 km
Apogee alt
520.8 km
Semi-major
6,888.8 km
B*
1.3498e-4
RAAN
333.1213°
Arg perigee
117.6701°
Mean anomaly
242.6033°
Rev number
25,549

§ Raw data

2021-091B1 49316U 21091B   26145.19380640  .00002716  00000+0  13498-3 0  99982 49316  97.4481 333.1213 0014759 117.6701 242.6033 15.18415798255497

JSON: /api/v1/satellites/49316 · /tle

For live sub-satellite position, see the globe view (requires WebGL).

§ Visibility from observer

Set your observer location to see the next 7 days of passes ≥ 10°. The values pass through the URL so the page stays shareable.

No JS? Fill the form by hand. The geolocation button needs JavaScript.

§ Radio — SatNOGS DB

ModeDescriptionDownlinkUplink
FM S-band telemetry 2.283 GHz
FM S-band telemetry 2.212 GHz

2 transmitters · refreshed weekly from db.satnogs.org